This is the latest recevied weather packets stored in our database for station/object OH2TI. If no packets are shown the sender has not sent any weather packets the latest 10 day(s).
| Time | Temp. | Humidity | Pressure | Rain* | Wind** | Luminosity | Snow |
|---|---|---|---|---|---|---|---|
| 1777582401 | 11.67° C | 64% | 1017.3 hPa | - | - | - | - |
| 1777582076 | 11.67° C | 64% | 1017.3 hPa | - | - | - | - |
| 1777581616 | 12.22° C | 64% | 1017.3 hPa | - | - | - | - |
| 1777581076 | 12.22° C | 63% | 1017.4 hPa | - | - | - | - |
| 1777580251 | 12.78° C | 62% | 1017.3 hPa | - | - | - | - |
| 1777579491 | 12.78° C | 62% | 1017.2 hPa | - | - | - | - |
| 1777579073 | 12.78° C | 61% | 1017.2 hPa | - | - | - | - |
| 1777578336 | 12.78° C | 62% | 1017.2 hPa | - | - | - | - |
| 1777577914 | 12.78° C | 62% | 1017.1 hPa | - | - | - | - |
| 1777577474 | 12.78° C | 63% | 1017.1 hPa | - | - | - | - |
| 1777576943 | 12.78° C | 65% | 1017.1 hPa | - | - | - | - |
| 1777576531 | 12.22° C | 66% | 1017 hPa | - | - | - | - |
| 1777575901 | 11.67° C | 71% | 1017 hPa | - | - | - | - |
| 1777575224 | 10.56° C | 75% | 1017 hPa | - | - | - | - |
| 1777574406 | 10.56° C | 72% | 1016.7 hPa | - | - | - | - |
| 1777573544 | 11.11° C | 72% | 1016.6 hPa | - | - | - | - |
| 1777572664 | 10.56° C | 74% | 1016.6 hPa | - | - | - | - |
| 1777572186 | 10° C | 74% | 1016.6 hPa | - | - | - | - |
| 1777571341 | 10° C | 75% | 1016.6 hPa | - | - | - | - |
| 1777570643 | 10° C | 75% | 1016.5 hPa | - | - | - | - |
| 1777570291 | 10° C | 75% | 1016.5 hPa | - | - | - | - |
| 1777569724 | 10° C | 75% | 1016.5 hPa | - | - | - | - |
| 1777569114 | 10° C | 74% | 1016.5 hPa | - | - | - | - |
| 1777568333 | 10° C | 74% | 1016.4 hPa | - | - | - | - |
| 1777567951 | 10° C | 75% | 1016.4 hPa | - | - | - | - |
* Rain since midnight (hover to see other rain measurements)
** Current wind speed in m/s (hover to see current wind gust speed)